STARLINK-32883 (62806 NORAD) Tracking and Keplerian Element Data

This shows tracking and keplerian element data for the satellite.

Feedback or suggestion? Click here.




ElementValue
Catalog62806
NameSTARLINK-32883
Epoch Orbit265
Epoch Day35.25001157
Epoch Year2025
RAAN11.5427
Inclination53.147
Eccentricity0.0001194
Argument of Perigee100.7628
Mean Anonmoly55.8049
Mean Motion15.85638109
Decay Rate-0.00961607
L11 62806U 25018A 25035.25001157 -.00961607 00000+0 -43326-2 0 9994
L22 62806 53.1470 11.5427 0001194 100.7628 55.8049 15.85638109 2653



Live tracking and technical data element details for STARLINK-32883 (NORAD 62806). STARLINK-32883 can be tracked NOW for your location showing map with azimuth and elevation plus other details from your city location.







IsCatalogInMostPopularTable: catalog: 62806, numindb: 208
Update: records affected: 1



GetName: 62806 STARLINK-32883

Hit Count: updated at: Mon, 08 Dec 2025 10:15:11 GMT